Regional Weather Roundup
Issued by NWS

Home | Current Version | Previous Version | Graphics & Text | Print | Product List | Glossary On
Versions: 1 2 3 4 5 6 7 8 9 10 11 12 13 14 15 16 17 18 19 20 21 22 23 24 25 26 27 28 29 30 31 32 33 34 35 36 37 38 39 40 41 42 43 44 45 46 47 48 49 50
000
ASUS43 KLMK 280502
RWRKY
KENTUCKY REGIONAL WEATHER ROUNDUP
NATIONAL WEATHER SERVICE LOUISVILLE KY
100 AM EDT SUN AUG 28 2016

NOTE "FAIR" INDICATES FEW OR NO CLOUDS BELOW 12,000 FEET
WITH NO SIGNIFICANT WEATHER AND/OR OBSTRUCTIONS TO VISIBILITY.

KYZ001>023-026-027-061>063-070>075-280600-
WESTERN AND SOUTH CENTRAL KENTUCKY

CITY           SKY/WX    TMP DP  RH WIND       PRES   REMARKS
PADUCAH        CLEAR     76  73  91 CALM      30.09R
HENDERSON      PTCLDY    75  72  88 CALM      30.10R
OWENSBORO      CLEAR     81  78  90 CALM      30.11F
HOPKINSVILLE   CLOUDY    75  72  88 SE5       30.10F
BOWLING GREEN  PTCLDY    76  73  91 CALM      30.13S
GLASGOW        CLEAR     72  72 100 CALM      30.15S
$$

KYZ024-025-028>034-038-045-046-053-280600-
NORTH CENTRAL KENTUCKY

CITY           SKY/WX    TMP DP  RH WIND       PRES   REMARKS
LOUISVILLE/SDF PTCLDY    80  71  74 SE3       30.13S
LOUISVILLE/LOU CLOUDY    79  72  79 CALM      30.14S
FORT KNOX      CLEAR     71  70  96 CALM      30.13R
$$

KYZ035>037-039>044-047>052-055>060-089>105-280600-
NORTHEAST KENTUCKY

CITY           SKY/WX    TMP DP  RH WIND       PRES   REMARKS
LEXINGTON      CLOUDY    75  70  84 NE3       30.15F
COVINGTON      MOCLDY    75  73  93 CALM      30.16R
FRANKFORT      CLOUDY    76  71  85 NE3       30.13F
$$

KYZ054-064>069-076>088-106>120-280600-
SOUTHEAST KENTUCKY

CITY           SKY/WX    TMP DP  RH WIND       PRES   REMARKS
JACKSON        PTCLDY    77  66  68 CALM      30.17F
LONDON         CLOUDY    73  70  90 NE3       30.15F
SOMERSET       CLOUDY    73  66  78 CALM      30.16R
MIDDLESBORO    CLOUDY    68  68 100 CALM      30.19F
MONTICELLO     MOCLDY   N/A N/A N/A VRB6      30.15
$$





USA.gov is the U.S. government's official web portal to all federal, state and local government web resources and services.